Find Starlink 4138

NORAD ID: 53535 Int'l Des: 2022-101 Owner: SPXS Country: US Constellation: starlink operational
LEOCIRCULAR

Current View

Loading 3D Globe...

About Starlink 4138

Starlink 4138 (NORAD 53535) is a starlink constellation satellite (v1.5) launched Aug 19, 2022 by SPXS of US. It operates in LEO, CIRCULAR orbit with a mass of 300.00 kg.

About Starlink 4138

Description loading...

Upcoming Passes

Passes for default location (London). Set your location on the main map for personalized predictions.

Altitude History

Loading altitude history...

Two-Line Element Set

1 53535U 22101J 26168.75053171 .00000712 00000-0 62792-4 0 9999
2 53535 53.1605 344.8278 0000494 86.6910 273.4138 15.08836442211278
Epoch: Jun 17, 2026 • Age: 17 hours

Current Status

Altitude 558.2 km
Velocity 7.58 km/s
Sub-Earth Point -52.21°S, 166.16°W
Launch Date Aug 19, 2022
Age 3.8 years
Type internet

Technical Details

Classification Payload
Mass 300.00 kg
Dry Mass 290.00 kg
Total Mass 300.00 kg
Length 0.20 m
Diameter 2.80 m
Span 9.00 m
Shape Box + pan
Manufacturer SPXS
Bus Type Starlink
Phase Status In Orbit
Owner/State SPXS/US

Most Searched